Location: Ebendorf
(52.1827°N, 11.5706°E)
Time: 08:18:19
(UTC+00:00)

Lacrosse 4 Rocket - Pass Details

Date: 15 May 2021
Orbit: 541 x 616 km, 68.0° (Epoch: 23 June)

Event Time Altitude Azimuth Distance (km) Brightness Sun altitude
Exits shadow 00:05:37 - 128° (SE) 2,012 3.9 -17.9°
Reaches altitude 10° 00:05:55 10° 124° (SE) 1,968 3.9 -17.9°
Maximum altitude 00:07:25 12° 104° (ESE) 1,862 4.0 -17.9°
Drops below altitude 10° 00:08:56 10° 84° (E) 1,964 4.4 -17.8°
Sets 00:12:38 0° 52° (NE) 2,860 5.9 -17.6°
